{"data":{"norad_id":49146,"intl_designator":"2021-082S","name":"STARLINK-3116","alt_names":[],"object_type":"PAYLOAD","status":"ACTIVE","operator":null,"country":"US","launch_date":"2021-09-14","launch_site_code":"AFWTR","launch_vehicle":null,"mission":null,"orbit_class":"UNKNOWN","rcs_meters":null,"size_class":null,"mass_kg":null,"dimensions":null,"purposes":["comms"],"wikipedia_slug":null,"has_3d_model":false,"image_url":null,"decayed_at":null,"tle_current":{"epoch":"2026-05-25T03:41:24.207360Z","epoch_age_seconds":57836,"freshness":"FRESH","line1":"1 49146U 21082S   26145.15375240  .00000123  00000+0  18389-4 0  9990","line2":"2 49146  70.0003  82.7010 0002861 268.4347  91.6484 14.97522607259051","mean_motion":14.97522607,"eccentricity":0.0002861,"inclination_deg":70.0003,"raan_deg":82.701,"arg_perigee_deg":268.4347,"mean_anomaly_deg":91.6484,"bstar":1.8389e-5,"rev_number":25905,"period_min":96.158815450858,"perigee_km":572.56464408207,"apogee_km":576.54297376293,"semimajor_km":6952.6908089225,"source":"CELESTRAK","updated_at":"2026-05-25T13:38:16.787574Z"}}}